RH
68 63 60 61 65 67 67 68 69 71 72 71 67 67 72 78 82 79 78 75 67 70 72 72 68 55 48 45 50 55 56 65 67 64 62 58 55 51 47 46 44 44 43 39 35 31 26 25 25 24 24 24 24 24 23 23 23 23 24 23 23 23 23 23 23 23 23 23 22 20 16 13 12 14 16 18 21 22 23 23 23 23 24 25 26
65 59 57 61 66 68 68 70 72 74 73 69 68 72 73 73 77 79 81 77 73 69 67 77 76 64 65 57 56 59 55 67 74 68 65 59 54 53 51 50 50 49 48 46 42 37 30 26 26 26 25 25 25 25 24 24 24 24 24 24 24 24 24 24 24 24 23 24 24 22 19 14 11 10 11 13 16 19 21 22 22 22 21 22 24
60 57 59 65 67 68 68 67 68 67 66 65 66 69 70 70 73 78 80 79 79 69 61 79 77 60 67 69 66 64 59 70 71 63 64 58 53 55 56 55 54 52 49 47 45 42 36 28 27 27 26 26 26 26 25 25 25 24 24 24 25 25 25 25 25 25 24 24 24 24 23 20 16 12 10 9 10 12 16 19 20 20 20 19 20
60 61 65 68 66 67 66 63 61 60 61 60 60 66 70 70 71 76 78 79 84 73 60 73 75 60 63 73 77 72 70 79 72 63 68 66 63 63 61 58 55 53 50 47 44 42 38 30 26 26 26 26 26 26 26 26 26 25 25 25 25 26 26 26 26 25 25 25 25 25 25 25 23 19 15 11 7 7 9 12 15 17 17 17 16
63 64 66 67 66 67 65 62 57 57 62 61 60 68 74 71 69 71 75 79 83 74 64 70 76 73 70 72 75 72 73 80 74 70 73 71 69 68 66 62 60 59 56 52 48 45 41 33 26 24 24 24 24 24 24 25 26 26 26 26 26 26 26 27 27 27 27 26 26 26 26 26 26 25 21 17 11 7 6 6 8 10 12 13 12
67 66 64 64 66 64 60 63 63 62 65 66 65 69 73 72 69 70 74 79 78 73 72 75 78 79 75 72 75 75 74 79 78 76 75 71 68 69 70 69 70 70 65 62 58 51 44 36 29 25 24 23 22 23 23 25 27 28 29 29 28 28 28 28 28 28 28 27 27 27 27 27 27 27 26 24 21 15 10 7 5 5 6 7 7
68 66 62 62 63 61 62 66 69 67 65 66 68 69 71 72 71 70 71 74 75 76 77 78 81 81 78 80 84 80 78 82 81 75 75 72 69 69 71 73 75 74 71 69 66 58 49 41 33 27 25 24 23 22 23 24 27 30 31 31 31 30 30 30 29 29 29 29 29 28 28 28 28 28 28 28 27 24 20 15 11 7 5 4 3
64 61 60 61 58 60 66 65 64 64 63 64 68 69 70 71 71 68 65 67 72 76 76 78 81 79 82 86 85 83 82 84 83 80 79 75 71 71 71 74 75 72 71 69 67 62 57 54 48 39 32 28 26 25 24 25 27 31 33 33 33 33 33 32 32 31 31 31 31 31 30 30 29 29 29 29 29 28 26 22 18 13 10 7 5
65 60 58 59 57 58 63 62 61 63 63 65 68 70 69 69 71 68 62 64 69 73 74 76 78 78 84 87 84 85 83 83 86 85 82 78 76 72 69 73 69 63 64 64 63 61 60 63 59 52 44 37 33 30 28 27 28 31 35 36 36 37 38 38 38 37 37 36 36 36 35 34 33 32 31 30 29 29 28 26 21 17 14 11 9
57 56 56 56 59 59 58 61 64 63 63 64 67 69 68 67 70 69 61 60 67 73 74 73 75 77 83 85 83 80 77 83 86 80 80 84 79 74 73 75 66 59 63 64 63 65 67 66 61 57 53 48 42 37 34 31 30 34 38 40 41 41 41 42 43 43 42 41 40 39 38 37 36 34 33 32 31 30 29 28 25 21 17 14 12
40 48 57 55 57 59 58 60 59 58 61 63 67 68 67 66 68 68 62 61 68 72 74 73 73 76 79 80 80 78 76 80 80 73 77 82 78 77 78 78 70 65 69 69 68 72 72 69 67 66 64 63 57 46 39 35 34 35 35 38 42 43 43 43 43 44 45 44 43 42 41 41 39 36 35 33 31 30 29 28 26 24 20 17 15
40 46 55 56 57 57 57 56 55 57 60 63 68 67 68 68 67 67 65 65 67 70 73 75 74 75 78 79 78 79 77 74 74 71 74 77 77 77 78 80 81 75 72 72 71 73 73 72 72 71 69 70 63 47 38 38 40 42 41 41 43 44 44 43 43 44 45 46 47 46 46 46 45 44 43 40 37 34 31 28 26 24 22 19 16
53 50 48 52 57 59 56 51 49 54 58 61 65 68 71 71 68 67 66 66 66 67 69 72 73 72 76 79 77 78 76 74 77 74 71 78 81 81 81 81 82 79 75 75 74 72 73 74 73 72 71 72 67 58 53 52 52 54 53 52 52 51 49 48 48 49 50 51 52 52 51 51 50 49 47 44 43 41 39 35 29 25 22 21 19
57 54 46 40 42 51 51 44 41 44 49 54 57 63 69 70 69 68 67 68 67 65 66 69 71 72 74 73 73 80 80 77 80 76 74 82 86 86 85 79 79 82 79 75 74 72 72 74 75 75 74 74 71 68 68 68 69 67 62 58 53 51 50 49 48 47 46 46 47 46 45 45 46 46 42 38 36 38 40 41 38 34 28 23 21
45 52 55 45 37 41 43 44 45 42 41 47 52 58 64 67 69 69 69 70 71 71 71 71 71 73 74 69 72 83 83 80 84 82 79 81 82 84 85 81 80 84 83 79 76 76 76 77 78 77 75 74 71 69 71 74 77 76 74 71 65 60 59 58 58 56 53 48 44 40 36 33 35 39 39 37 36 37 39 41 43 44 42 36 29
33 34 40 36 30 34 41 44 47 46 40 41 50 57 60 64 67 69 71 72 75 79 78 75 74 73 71 65 70 81 85 86 90 86 82 81 81 84 87 84 82 82 83 83 80 79 79 77 76 75 73 74 74 73 74 76 76 75 75 74 72 70 69 69 69 69 69 67 64 61 57 52 50 51 50 48 50 48 45 43 43 44 48 50 48
31 24 19 15 12 17 25 26 34 46 44 40 48 55 59 63 66 68 70 70 75 79 78 76 73 72 69 61 64 79 88 89 89 87 83 82 82 85 86 87 89 85 82 83 81 79 79 77 76 75 74 75 76 74 72 72 70 67 65 62 60 59 60 61 60 61 62 64 65 66 67 66 65 66 64 64 65 62 60 58 55 51 50 52 57
36 29 19 12 9 7 8 10 18 29 32 38 49 53 55 60 66 68 67 67 68 73 77 75 70 70 69 61 58 71 84 87 86 83 81 82 83 84 83 87 91 87 83 81 76 76 80 79 77 75 73 73 73 70 66 64 62 60 58 56 54 53 52 51 48 48 48 48 48 46 44 43 41 41 44 50 56 58 65 72 73 69 65 62 64
45 41 31 19 12 8 7 8 11 13 15 27 40 44 46 53 61 65 65 63 62 68 75 75 72 69 68 66 60 64 75 81 80 78 79 82 84 85 86 89 89 85 85 81 75 78 81 79 78 76 72 70 68 63 59 56 53 54 55 55 57 58 57 52 45 39 36 32 29 24 19 15 13 14 19 30 42 50 59 70 79 81 81 79 78
53 52 47 39 25 12 8 12 16 18 23 31 38 42 42 44 53 61 64 61 61 67 71 72 75 72 72 73 65 60 67 74 76 78 78 80 85 88 88 87 86 88 91 88 84 83 78 76 76 71 64 59 56 53 51 50 49 49 52 55 57 58 55 49 41 32 26 20 15 11 9 8 10 17 28 43 57 66 70 73 79 82 82 84 85
57 57 55 54 46 23 9 12 17 21 30 40 48 54 50 46 50 56 56 56 62 68 69 72 77 76 75 71 59 53 61 68 76 81 80 82 87 85 84 88 90 95 98 95 92 87 77 70 63 54 48 42 38 37 36 35 35 34 35 36 34 32 28 25 22 18 14 11 9 9 9 9 12 20 33 46 57 69 77 80 83 83 81 82 84
60 62 60 59 57 39 13 7 12 15 22 34 49 61 60 51 47 49 52 59 70 77 75 73 74 71 68 69 63 58 64 70 76 82 82 84 87 82 82 91 95 96 97 95 91 82 67 51 36 28 27 24 21 19 17 16 16 16 15 15 14 13 12 11 11 10 10 9 9 9 10 10 10 12 17 27 40 55 69 79 86 88 87 86 85
60 64 67 63 61 49 21 5 7 7 11 26 44 53 53 46 39 42 50 56 61 68 66 62 67 70 69 75 75 70 72 73 75 82 80 80 86 85 85 91 93 94 88 75 62 49 36 25 16 14 15 15 14 12 12 12 11 11 10 10 10 9 9 9 8 8 8 8 8 8 8 8 8 8 8 14 23 36 51 68 82 88 90 91 92
57 64 70 69 66 51 22 5 5 4 5 17 31 41 45 42 33 31 41 44 44 52 55 53 62 70 67 66 67 66 68 70 76 81 79 81 86 88 89 81 68 63 54 38 25 19 16 15 13 12 12 11 11 10 10 9 8 8 8 8 8 8 7 7 7 7 7 7 7 7 7 7 6 6 7 8 9 14 25 43 65 78 85 92 97
58 65 70 69 61 38 13 5 5 5 5 8 15 25 31 33 31 32 39 39 37 44 47 45 52 58 55 52 54 58 63 70 80 83 84 88 85 87 87 63 37 30 26 19 16 14 12 12 11 10 10 10 11 12 12 12 12 12 11 12 12 12 12 12 12 12 12 13 13 13 13 13 13 10 9 8 7 7 9 18 34 49 60 70 84
56 60 65 57 39 18 6 6 5 5 7 6 8 11 12 18 28 37 41 37 37 43 44 46 52 52 47 46 49 57 66 77 84 85 89 88 86 86 70 46 40 43 37 24 13 11 11 9 12 15 17 20 24 26 26 27 27 25 25 26 25 25 23 22 21 20 20 20 19 20 20 20 21 20 19 17 15 13 10 9 13 21 29 31 41
39 33 39 31 16 8 5 6 6 6 8 8 9 9 8 11 18 26 29 29 37 46 43 44 51 51 48 50 55 61 67 72 74 76 77 75 82 81 56 48 67 78 73 49 16 9 16 15 21 29 31 35 38 39 38 37 35 33 32 32 32 31 29 27 26 24 23 22 20 19 18 18 18 19 21 22 23 24 22 19 14 12 14 13 12
28 12 15 11 7 7 5 5 6 6 8 9 9 10 10 11 11 13 15 16 28 41 42 43 50 53 50 46 45 43 38 38 39 40 42 45 57 62 57 68 81 79 80 59 25 19 26 28 35 40 42 44 43 39 35 31 30 29 28 29 28 28 27 27 26 25 24 22 21 19 17 15 14 13 14 15 17 20 23 25 25 21 17 14 11
34 13 10 8 6 6 5 5 6 6 8 9 9 10 10 11 11 11 11 12 18 27 33 37 40 40 34 25 21 18 15 15 15 14 16 21 27 36 57 79 78 69 66 50 35 36 36 38 45 46 46 44 38 35 33 31 31 31 30 30 29 28 27 26 25 25 24 23 23 22 21 19 17 15 14 12 12 12 14 17 20 24 25 23 20
41 19 11 9 6 6 5 5 5 6 7 7 8 9 9 9 9 10 10 11 12 15 18 20 20 19 16 12 10 11 10 10 10 10 11 14 14 19 39 62 72 75 66 47 42 46 45 47 50 49 45 38 37 40 39 37 36 34 34 34 32 31 29 27 26 25 24 24 23 23 23 22 21 20 18 17 15 12 11 11 11 14 18 22 24
45 25 14 10 7 6 6 5 5 5 5 6 6 6 7 8 8 8 9 9 9 10 10 9 9 9 8 8 9 10 11 13 15 18 19 21 25 28 37 53 66 66 55 48 51 53 54 56 53 48 42 37 40 43 42 40 38 37 38 37 36 34 31 29 26 25 24 23 22 22 21 21 21 21 21 20 19 17 14 13 11 10 10 11 14
48 30 19 12 8 7 6 5 5 5 5 6 6 6 6 6 6 6 6 7 7 6 7 8 11 15 19 22 25 26 30 33 35 37 38 37 40 44 47 53 59 56 49 53 57 55 55 56 53 48 43 41 42 41 41 40 38 39 40 38 36 34 31 29 26 25 25 23 23 22 21 21 21 20 21 21 21 20 19 17 15 13 12 10 9
54 43 28 14 9 7 7 7 7 8 9 9 9 10 11 11 12 12 12 13 13 15 18 21 26 30 34 36 38 40 41 42 43 44 45 46 45 47 48 50 55 57 54 53 53 53 53 51 51 49 44 42 42 39 40 39 38 40 39 36 34 31 29 28 25 24 23 21 21 21 20 20 19 19 19 19 19 20 20 20 19 17 15 14 12
61 53 34 16 11 10 9 11 12 14 16 18 20 21 23 25 26 26 27 27 27 29 30 32 34 35 36 37 38 41 41 41 43 43 44 45 42 41 44 47 51 54 52 46 41 43 46 44 44 45 43 43 40 37 39 43 43 39 34 32 30 28 28 26 24 23 21 19 18 18 18 17 16 16 15 15 15 16 16 17 18 19 18 17 16
64 51 31 17 14 14 15 17 19 21 24 27 30 31 32 34 35 35 36 35 34 34 33 33 34 33 35 37 38 40 41 42 44 45 48 48 44 43 46 48 50 53 54 52 45 42 41 41 40 38 37 39 40 38 40 42 41 34 30 29 27 26 26 24 22 21 18 17 16 14 15 14 13 13 12 12 12 11 12 13 14 16 16 17 17
63 47 31 22 19 19 21 23 25 28 31 33 34 35 35 36 37 37 37 37 36 36 35 35 35 36 38 39 41 44 45 48 49 50 54 53 49 52 55 53 54 57 60 63 61 58 54 52 51 45 41 43 46 47 45 39 35 31 28 27 24 22 22 20 19 17 16 15 14 13 13 12 12 12 11 11 11 11 11 10 11 12 12 14 15
66 52 39 30 25 24 25 27 30 33 36 38 38 39 39 39 39 40 39 39 39 38 38 38 38 40 41 43 46 49 52 56 57 58 62 62 58 59 61 57 55 62 71 72 70 71 71 68 65 62 61 60 53 47 42 35 32 32 28 24 22 19 18 17 16 15 15 14 13 13 13 12 13 12 12 12 11 11 11 11 11 10 10 11 11
70 60 50 39 32 31 30 30 32 35 38 42 43 44 44 43 42 42 42 41 41 41 40 40 40 41 43 45 48 52 55 58 60 60 64 65 63 62 64 59 54 60 72 76 74 76 79 78 74 71 69 62 49 40 37 33 31 29 25 22 20 18 17 17 16 16 15 14 13 13 12 13 13 12 13 12 12 12 11 11 12 11 11 11 10
74 68 59 49 41 38 36 35 35 37 39 41 44 46 46 46 46 45 44 44 43 42 41 41 41 42 44 47 50 56 60 61 63 64 65 66 65 63 63 61 56 55 61 68 72 74 79 85 81 71 60 49 41 38 36 33 29 25 21 19 18 18 17 16 16 16 15 15 15 14 13 13 13 13 13 12 12 12 11 11 11 11 11 11 11
76 77 68 58 51 45 41 41 40 39 41 42 43 45 45 45 46 45 45 44 43 43 43 44 44 44 46 49 53 60 64 66 68 69 69 69 69 68 67 64 61 58 59 67 70 69 74 78 69 56 48 44 41 38 34 30 25 21 19 18 18 18 17 16 16 16 16 15 15 15 14 14 13 13 12 12 12 11 11 10 10 10 10 10 10
65 78 78 70 63 56 50 46 43 41 41 42 43 45 45 46 48 49 50 50 50 51 53 55 57 58 58 59 61 63 64 65 67 71 74 75 74 75 73 68 64 64 65 67 67 63 59 53 42 36 38 40 38 33 28 24 21 19 19 18 18 17 16 16 16 16 16 16 15 15 14 14 13 12 12 12 11 11 10 10 10 9 9 9 10
50 65 78 76 70 67 65 60 56 50 46 45 47 49 52 56 58 59 60 59 59 61 62 63 66 68 70 71 72 71 73 75 76 77 78 79 81 82 79 73 69 70 68 65 60 54 43 32 27 28 31 31 29 25 22 20 20 20 20 19 18 18 17 16 15 16 16 15 14 14 13 13 13 12 12 11 11 11 10 10 9 9 9 9 9
49 54 62 66 67 70 74 75 74 68 60 55 54 56 59 61 58 56 57 58 60 62 61 63 67 68 68 71 73 75 78 82 84 82 79 78 79 82 84 80 74 72 71 65 53 38 27 23 25 26 26 25 23 22 21 21 21 21 20 20 19 18 17 16 15 15 15 15 14 13 13 13 12 12 12 11 12 12 11 11 10 10 9 10 10
53 49 49 56 65 68 69 74 80 80 76 70 67 68 66 63 59 56 56 56 59 61 58 61 67 68 67 72 78 83 84 83 83 83 82 81 81 88 92 85 77 77 72 56 37 24 21 23 24 24 23 23 22 22 22 22 23 23 22 21 20 18 18 17 16 16 16 15 14 13 12 13 13 12 12 12 12 12 11 11 10 9 9 9 9
47 42 39 45 54 57 58 64 72 78 81 80 79 78 73 68 67 68 67 66 67 67 62 62 66 69 74 79 83 85 84 80 79 83 86 86 88 95 97 85 78 76 60 36 22 21 23 24 24 24 24 24 24 24 24 24 24 23 22 21 20 20 19 19 18 17 16 15 14 13 13 13 13 12 11 11 10 9 8 8 7 7 7 7 8
51 47 45 43 45 47 52 62 72 78 81 80 79 76 72 70 71 73 75 75 76 77 75 72 71 75 81 82 81 82 82 81 85 88 87 85 85 91 91 81 71 59 40 25 22 24 24 25 26 26 25 26 26 25 25 25 23 22 22 22 22 21 20 20 19 18 17 16 16 13 11 12 11 10 9 8 7 6 7 7 8 9 9 8 9
53 54 55 51 48 47 50 57 66 70 73 77 81 79 76 75 74 72 72 72 74 78 79 77 77 80 83 80 78 79 81 85 91 89 83 79 77 78 75 64 51 38 28 26 26 26 27 28 27 26 26 26 26 26 25 25 24 23 23 23 23 23 23 23 23 22 20 18 17 14 10 10 10 9 8 8 7 7 7 8 8 9 8 8 8
51 52 54 52 51 50 48 47 52 54 55 64 74 75 77 79 77 74 74 73 75 78 78 79 83 85 82 77 76 79 81 85 89 83 71 63 59 55 48 40 33 28 27 28 29 29 30 29 27 27 27 26 26 26 25 24 24 24 24 25 26 27 27 28 27 25 23 20 17 13 9 9 10 10 10 9 8 8 7 7 6 5 5 5 4
45 45 46 46 44 44 43 41 44 45 45 52 59 59 60 63 62 64 69 72 74 78 83 89 91 86 81 76 77 82 84 82 80 69 51 40 34 30 28 28 28 29 31 32 32 32 31 29 29 28 28 27 27 26 25 25 25 26 27 28 30 31 32 32 30 27 24 21 17 13 10 10 11 10 9 8 7 6 4 4 4 3 4 4 4
42 42 42 41 37 37 38 37 38 39 41 51 63 64 59 54 47 44 48 55 64 74 83 90 88 81 80 81 81 82 77 70 64 53 37 28 25 25 27 29 30 32 34 33 33 33 31 30 30 29 28 29 28 28 28 28 27 27 28 30 31 32 33 31 27 25 22 19 16 12 11 12 10 8 7 5 4 4 3 4 4 4 6 8 8
41 41 40 40 38 36 34 34 37 41 43 52 64 65 60 53 47 43 42 46 59 72 79 83 80 74 78 84 83 73 60 49 44 38 30 27 28 28 31 33 32 34 34 33 33 34 33 33 32 32 31 31 31 31 31 31 30 30 29 29 27 26 24 22 19 17 15 15 14 12 11 10 8 6 5 4 3 3 4 5 7 11 15 18 18
Wind_Speed
7 9 11 11 10 10 8 8 10 11 11 12 12 11 9 8 5 6 8 10 13 13 14 16 18 20 21 22 22 23 25 24 24 25 23 24 25 24 24 23 23 23 23 23 22 21 20 19 19 18 17 16 16 15 14 13 12 11 11 11 11 11 11 11 11 11 11 12 12 12 12 11 10 10 10 10 11 11 11 12 13 14 15 16 17
10 11 11 11 11 12 11 11 11 11 11 11 12 11 8 7 5 6 8 9 11 12 13 12 15 19 20 21 21 23 27 24 22 22 20 21 22 22 22 22 22 22 22 22 21 21 20 20 19 18 17 16 16 15 15 14 14 13 13 13 13 13 12 12 12 12 13 13 13 14 14 13 12 11 10 10 10 10 10 11 11 12 13 14 15
11 10 10 10 11 12 11 10 10 10 11 11 11 10 7 6 6 7 7 9 10 11 12 10 11 17 19 21 21 25 28 22 19 18 16 18 20 21 20 19 19 19 20 20 21 21 21 20 19 18 18 17 16 16 16 15 15 15 15 15 15 15 14 14 14 14 14 14 14 14 15 15 14 13 12 12 11 11 11 10 10 11 11 12 13
7 7 8 8 9 10 9 9 9 8 9 9 9 8 6 7 8 8 7 8 7 8 11 10 9 13 17 18 19 24 24 13 10 13 11 12 15 17 17 17 17 17 18 18 19 20 20 19 19 18 17 17 17 17 17 17 17 17 17 17 16 16 16 16 15 15 15 15 15 15 16 16 16 16 15 14 13 13 12 12 11 11 11 11 12
5 6 7 7 8 9 9 9 8 7 7 8 7 7 6 7 9 9 8 8 8 8 9 9 10 12 13 15 16 20 17 6 5 7 8 9 9 11 12 14 14 13 15 15 16 17 17 18 18 18 17 18 18 18 18 18 18 18 18 18 18 17 17 17 17 16 16 16 17 17 17 17 17 18 17 17 16 15 14 14 13 13 12 12 12
5 5 5 6 8 9 8 7 7 7 7 7 7 6 7 7 8 9 9 10 10 8 8 9 10 12 14 15 15 16 12 6 7 7 7 8 8 9 10 10 10 10 11 11 12 13 14 15 16 17 17 17 17 18 19 19 18 18 18 18 18 18 18 18 18 17 17 17 17 17 18 17 18 18 18 18 18 17 16 16 15 15 15 14 13
5 6 5 6 6 6 6 6 7 7 7 8 7 7 7 8 9 10 10 10 10 8 9 10 11 12 13 12 11 13 10 8 9 7 6 8 9 9 9 8 8 8 9 8 9 10 11 13 14 15 16 16 17 17 18 18 18 17 17 18 18 18 18 18 18 18 18 17 17 17 18 18 17 18 18 18 18 18 17 17 16 16 17 16 16
5 5 6 6 4 4 5 6 6 6 6 7 7 8 9 9 10 11 12 11 10 9 10 10 11 11 12 11 13 13 11 9 9 7 6 8 9 8 8 7 7 7 8 8 8 8 9 9 10 12 14 15 16 16 17 17 17 16 16 16 17 17 17 18 18 18 18 18 17 17 18 18 18 18 18 18 18 18 18 17 16 16 17 17 17
4 4 5 4 3 4 6 5 5 5 5 6 7 9 10 9 9 11 13 12 11 11 10 11 12 9 11 14 13 10 10 10 9 8 8 8 8 8 7 8 8 8 9 8 6 6 7 8 9 10 11 12 14 15 16 16 16 15 15 16 16 17 17 17 17 18 18 18 18 18 18 18 18 18 18 19 19 19 19 18 17 16 16 17 17
3 2 2 2 1 3 5 4 3 4 5 6 7 8 10 10 9 10 12 11 11 11 11 12 12 9 11 14 10 6 8 9 8 8 8 7 7 8 8 8 10 9 8 6 5 6 7 7 8 8 9 10 12 14 15 15 15 15 15 16 16 17 17 17 17 18 18 18 19 19 19 18 18 18 18 19 19 19 19 19 19 18 16 16 16
1 2 1 0 1 3 4 4 4 4 4 5 6 8 9 10 10 10 10 10 12 12 11 12 11 10 11 12 8 5 7 10 7 7 9 8 8 9 9 9 10 9 6 4 5 7 8 7 8 8 8 8 10 12 14 14 15 15 15 15 16 17 17 17 17 18 18 19 19 19 19 19 18 18 18 19 19 19 19 19 19 19 18 17 17
4 2 2 2 1 2 3 3 3 4 4 5 6 8 8 9 9 10 11 11 12 12 11 11 9 10 11 11 6 5 7 10 10 8 8 8 9 9 9 10 9 7 6 6 7 8 8 8 8 8 8 8 9 11 12 13 14 14 15 15 15 16 17 17 17 17 18 18 19 19 19 19 18 18 18 18 19 19 20 20 20 20 20 19 18
6 4 4 4 1 2 3 4 3 3 4 4 6 8 9 10 10 10 11 11 11 11 10 10 9 9 11 9 6 5 8 9 8 9 9 6 8 8 8 9 8 6 7 7 7 7 7 8 8 9 9 8 9 9 10 11 12 13 13 14 14 15 16 16 17 17 17 18 18 19 19 19 19 19 19 19 19 20 20 21 21 20 20 20 19
8 7 7 5 2 2 4 4 3 3 5 5 6 8 9 10 10 10 10 10 10 10 9 10 9 9 12 10 7 7 9 9 7 7 9 7 8 8 7 8 6 5 7 8 7 6 6 8 8 8 9 8 8 8 8 9 10 11 12 13 14 15 15 16 17 18 18 18 19 19 20 20 20 21 21 21 22 22 21 21 21 21 21 21 21
10 9 8 7 5 1 1 3 3 3 4 5 5 7 8 9 9 10 10 10 10 10 9 10 9 9 12 11 8 8 9 8 7 7 8 8 9 7 5 5 4 4 6 7 7 6 6 7 7 6 8 8 8 8 7 8 9 10 10 11 12 13 14 15 16 16 17 18 19 20 21 21 22 22 23 23 24 24 23 23 23 22 22 22 22
12 10 8 7 6 4 2 1 3 3 3 4 5 7 8 7 8 10 10 11 11 11 11 10 9 11 12 9 7 8 7 6 6 6 7 8 9 7 3 4 3 2 3 6 7 6 6 6 5 6 7 7 7 7 7 8 9 9 9 9 10 12 13 14 14 15 16 17 18 19 20 21 22 22 23 23 24 24 24 24 25 24 23 23 22
11 10 8 7 7 5 2 0 2 3 4 4 5 7 8 7 8 9 10 11 11 12 13 12 11 12 10 7 6 6 5 4 5 5 6 8 9 8 3 2 3 3 4 6 6 5 4 4 4 6 6 6 6 6 7 8 9 9 9 9 10 11 11 12 13 13 14 15 16 17 18 19 21 22 22 23 24 25 25 25 25 25 24 24 23
10 9 9 9 8 7 5 2 2 4 6 6 7 8 8 7 8 8 9 11 11 12 13 12 11 11 9 7 6 6 6 5 5 5 6 7 8 7 4 2 1 5 6 6 4 3 2 3 4 5 5 5 7 7 7 8 9 10 9 9 10 10 11 11 11 12 12 12 13 14 15 16 17 18 19 21 23 25 25 25 26 26 25 24 23
8 8 8 8 9 8 7 6 3 2 5 7 9 9 9 9 9 9 9 10 10 10 11 10 10 10 9 8 6 7 8 7 7 7 6 6 8 7 4 3 1 3 5 3 1 2 3 3 4 5 6 6 8 8 9 10 10 11 11 10 10 11 11 11 12 12 12 13 13 14 14 15 15 16 16 18 20 22 23 24 25 26 26 24 23
7 7 7 8 8 8 8 8 5 0 4 6 8 9 9 10 10 9 9 9 10 10 9 9 8 8 9 9 7 7 8 9 8 8 6 6 8 7 5 3 2 2 2 2 1 2 3 3 3 5 7 7 7 8 9 9 10 10 11 11 11 11 11 12 12 13 14 14 14 13 13 14 14 14 14 15 16 18 19 21 23 26 27 26 26
8 8 8 8 8 8 8 8 6 1 4 5 6 7 8 10 10 10 10 10 11 10 9 9 7 6 7 7 8 8 8 9 8 8 8 7 7 6 5 4 4 3 2 1 2 4 4 4 4 5 5 6 6 6 7 7 7 8 8 9 9 9 10 10 11 11 12 12 12 11 12 12 12 12 12 13 14 15 16 16 18 22 26 27 28
10 10 10 9 7 7 6 7 7 2 3 5 6 5 5 8 10 10 10 10 9 7 8 9 7 6 6 5 7 8 7 7 8 9 9 7 6 6 6 5 4 4 3 3 3 3 4 5 4 2 3 4 4 4 5 6 6 6 7 7 8 8 9 9 9 10 10 10 10 10 11 11 11 11 11 11 12 12 13 13 13 17 21 25 28
11 12 12 10 8 6 5 6 6 4 2 5 6 5 5 6 8 9 10 10 9 8 9 9 7 7 6 5 7 8 7 6 8 9 9 8 7 7 7 6 4 4 4 3 3 2 2 3 3 2 2 3 4 4 5 5 6 6 7 7 8 8 9 9 9 9 9 9 9 9 9 9 9 9 9 10 11 11 11 11 10 12 16 20 25
14 13 11 8 7 6 4 4 4 3 2 4 4 4 4 5 6 8 9 9 9 10 11 10 8 8 7 7 8 7 6 6 7 9 9 8 7 6 6 5 4 3 2 1 1 1 1 2 2 3 2 2 3 3 4 4 5 5 6 6 7 7 8 8 8 9 9 9 9 9 9 9 9 9 9 10 10 11 11 11 10 11 12 14 18
14 11 8 5 5 4 3 2 3 2 3 3 3 4 4 5 6 7 7 6 7 9 10 10 9 9 8 8 7 6 6 7 7 8 8 7 7 6 5 4 3 3 3 2 1 2 3 3 3 4 5 5 5 5 5 5 5 5 6 6 7 7 8 8 8 8 9 9 9 10 10 10 10 10 10 11 11 11 11 12 12 13 14 15 14
11 7 4 4 5 3 2 1 2 3 4 4 3 3 3 4 6 6 6 5 6 7 8 10 10 9 9 9 8 8 9 10 10 9 8 8 8 7 4 4 4 5 2 3 3 4 4 5 5 6 6 7 7 6 6 5 6 6 6 6 7 7 7 8 8 8 9 10 10 10 11 11 11 11 11 11 12 12 12 12 12 13 14 15 15
8 4 1 3 4 3 2 2 3 3 4 5 5 4 4 5 6 7 7 6 6 7 8 10 11 11 10 9 9 9 10 11 12 11 10 10 10 8 6 8 8 8 3 2 3 5 4 5 6 6 6 6 6 6 5 5 6 6 7 7 7 7 7 7 8 8 9 10 11 11 12 12 12 12 12 12 12 12 13 12 12 12 11 11 12
5 2 0 3 3 2 3 3 3 4 4 5 5 6 6 7 7 7 7 7 7 8 8 9 11 10 10 9 9 9 9 9 9 9 9 11 13 10 10 12 12 11 10 8 1 3 4 6 6 5 5 5 5 5 5 5 6 6 7 7 6 7 7 7 8 8 9 9 10 11 12 12 13 13 14 14 14 14 14 13 13 12 11 10 10
4 2 0 2 3 2 3 3 4 4 5 5 5 6 7 7 7 7 7 7 7 8 8 9 10 9 9 9 9 9 9 8 7 6 7 9 12 12 13 14 13 11 9 8 3 2 4 5 4 3 3 3 4 4 4 4 5 6 6 6 7 8 8 8 7 8 8 9 9 10 10 11 12 12 13 14 14 15 15 14 14 13 13 12 11
5 3 1 2 3 3 3 3 4 4 5 5 5 6 6 7 7 7 7 7 7 8 8 9 9 8 8 8 9 9 9 9 8 8 9 8 9 9 9 12 12 8 5 4 5 4 2 3 2 2 2 2 3 3 3 4 5 6 6 7 8 9 9 8 8 9 9 9 9 9 10 10 11 11 12 12 13 14 14 15 15 15 14 14 13
6 5 3 3 3 3 4 4 4 5 5 6 6 6 6 6 6 7 7 7 8 8 9 9 9 9 9 9 9 10 10 10 9 9 8 8 7 7 7 9 10 7 3 4 5 4 2 1 1 1 1 1 1 2 3 4 5 6 7 8 9 9 10 10 11 11 11 11 11 11 11 11 11 12 12 12 12 13 13 14 15 15 15 15 15
7 6 4 4 4 4 5 5 5 5 5 6 6 6 6 6 7 7 8 8 8 9 9 10 10 10 10 10 10 10 10 10 9 8 7 6 6 6 6 7 6 4 1 1 1 2 2 3 3 3 3 3 3 3 4 5 6 8 9 10 10 10 11 11 11 12 13 13 13 13 13 13 13 13 13 13 13 13 13 14 14 15 15 16 16
8 7 5 5 5 5 6 6 6 6 6 6 6 6 7 7 7 7 7 7 8 8 9 10 10 10 10 10 9 9 8 8 7 6 5 4 4 4 4 4 4 4 5 4 4 4 5 5 5 5 6 6 6 6 7 9 10 11 12 12 12 11 11 12 12 13 14 15 16 16 15 14 14 14 13 13 14 14 15 15 15 15 16 16 17
9 7 6 6 6 6 6 7 7 6 6 6 6 7 7 8 7 7 7 7 8 8 8 8 8 8 8 7 7 6 5 5 4 3 3 3 3 3 2 3 4 5 7 8 7 6 7 7 7 8 8 9 9 9 10 11 13 14 15 15 16 16 15 15 15 16 16 17 18 19 19 18 17 17 16 15 14 14 14 15 15 16 16 17 18
8 7 7 7 7 8 7 7 7 6 6 6 6 6 7 7 7 6 6 6 5 5 5 5 5 4 4 3 3 2 2 1 1 1 2 4 4 3 3 5 5 7 8 10 11 10 10 10 10 10 9 10 12 13 13 13 13 13 15 16 18 20 21 20 20 20 19 19 19 20 21 21 20 20 20 19 17 16 15 15 15 16 16 17 18
7 6 7 8 8 8 7 7 6 6 6 6 5 5 5 5 4 4 4 3 2 2 1 1 1 1 1 2 2 3 3 3 4 4 4 7 7 6 8 8 8 9 10 11 12 13 13 13 14 13 11 11 13 14 14 14 14 15 17 20 21 23 24 25 26 25 24 23 21 20 20 21 21 21 20 20 20 20 18 17 17 16 17 18 19
7 6 6 7 8 8 8 8 7 7 6 6 5 5 5 4 4 4 4 4 4 4 5 4 5 5 5 6 6 6 7 7 7 7 7 10 10 10 11 12 11 11 12 12 13 14 15 15 15 14 13 13 14 15 14 14 16 18 20 22 23 24 24 25 26 28 28 26 24 21 20 21 21 21 20 20 20 21 20 20 19 19 18 19 20
8 7 7 7 8 8 9 9 9 9 8 8 8 8 7 7 7 7 6 7 8 8 9 9 10 10 10 10 10 10 11 10 10 10 10 12 12 11 13 14 13 12 12 13 14 15 15 15 15 14 13 14 14 15 17 17 19 21 22 23 24 25 26 26 26 27 27 28 27 25 23 22 22 22 22 22 21 22 22 21 21 21 21 22 22
8 9 9 9 9 9 10 10 10 10 10 11 11 10 10 10 10 10 10 10 11 12 13 13 14 14 14 15 14 14 14 14 14 14 13 13 13 13 14 16 15 15 15 14 13 14 13 14 14 14 14 15 15 16 19 20 22 24 24 24 24 25 26 26 26 27 27 28 28 28 27 26 26 25 25 25 25 24 24 24 24 23 23 24 25
8 10 11 11 11 11 11 11 11 12 12 12 12 13 13 13 13 13 13 13 14 15 16 17 18 18 18 19 18 18 17 17 17 17 16 16 16 16 16 17 17 15 14 13 12 13 12 12 13 13 13 16 17 19 21 22 23 24 25 24 24 24 25 25 26 27 28 28 28 28 28 29 29 29 29 29 28 28 27 27 26 25 25 26 27
8 10 12 12 12 13 13 14 14 14 14 14 14 15 15 16 16 16 16 16 17 18 18 19 21 21 21 22 23 21 21 21 20 20 20 20 20 19 17 17 17 14 12 11 11 12 12 12 13 13 14 17 19 21 22 24 25 24 24 24 25 25 26 25 25 27 29 30 30 29 29 30 32 31 30 31 31 31 30 30 28 26 26 27 28
9 10 12 14 14 14 15 15 16 17 17 18 17 17 18 18 18 18 18 19 20 20 21 22 22 23 24 25 25 23 23 23 22 23 24 24 24 24 21 18 16 14 13 12 12 12 13 13 14 14 15 18 20 21 22 24 26 25 25 25 26 27 28 27 26 26 28 31 32 30 28 29 32 32 31 31 31 32 32 32 30 28 27 28 29
10 10 12 13 15 15 16 17 17 18 20 21 20 19 20 21 22 22 22 23 23 24 25 25 26 27 27 26 25 24 24 23 24 25 26 27 27 28 27 22 17 15 15 13 13 13 13 14 15 16 17 19 22 22 22 23 25 26 27 27 28 29 30 30 29 27 28 31 33 33 30 29 31 33 32 31 32 32 33 33 33 32 30 29 30
10 11 12 14 16 17 17 18 19 21 23 23 21 21 22 24 26 26 27 27 27 27 28 29 30 30 26 24 24 24 23 24 26 27 28 29 30 29 27 23 19 15 14 13 13 14 14 15 17 17 17 20 23 23 22 22 25 26 27 28 29 31 31 32 32 31 30 32 34 36 33 31 32 33 32 31 32 33 33 33 34 34 33 32 32
12 13 14 15 17 19 19 20 21 24 26 25 23 23 23 24 26 28 28 29 29 30 31 33 33 30 27 26 26 26 26 28 28 28 28 29 27 23 22 21 17 14 13 13 14 15 15 16 17 18 18 19 23 24 22 23 25 27 28 28 30 31 32 32 33 32 32 32 35 37 36 34 33 33 33 32 32 32 32 32 33 33 33 33 32
12 14 14 14 16 18 19 20 21 25 27 26 24 23 24 26 27 28 29 29 30 31 32 33 33 32 30 30 29 28 28 27 26 25 25 21 16 15 16 17 15 13 13 14 15 16 17 17 18 19 18 19 22 23 23 24 26 27 29 29 30 31 32 33 33 32 32 32 34 37 38 36 34 33 33 32 32 32 31 30 30 30 31 31 31
16 17 17 17 17 18 19 20 21 25 28 27 25 25 26 28 30 30 31 31 33 34 36 36 34 33 32 32 30 27 25 22 20 18 17 14 12 12 14 13 12 12 13 14 15 16 17 18 19 20 19 20 22 23 24 25 26 28 30 31 31 32 33 34 33 33 33 33 35 38 40 39 37 35 34 32 31 31 30 29 29 29 30 31 31
19 20 20 20 20 20 21 21 23 25 28 28 27 25 25 27 29 30 31 32 34 36 39 39 36 33 31 29 27 23 19 18 16 13 12 12 11 11 12 12 12 12 13 14 16 17 17 18 19 19 20 20 22 23 24 26 27 29 31 32 32 33 34 35 35 35 36 36 37 40 42 41 38 36 34 32 31 30 29 29 30 30 31 32 32
21 22 22 23 23 23 24 24 25 26 28 29 29 26 23 23 24 26 28 30 32 34 36 37 36 32 28 24 21 18 16 14 13 12 11 11 11 11 12 12 12 12 13 15 16 17 17 17 18 19 19 21 22 23 25 27 28 30 31 32 32 33 35 36 37 38 38 38 38 41 42 41 38 37 35 33 32 32 31 31 32 33 34 35 35
25 26 26 27 28 28 29 29 29 30 31 31 29 25 23 23 24 25 27 28 29 31 33 33 32 29 24 21 20 18 15 13 13 14 13 13 13 12 12 13 13 13 14 16 16 17 17 18 18 19 19 20 21 23 25 26 28 30 31 32 33 34 36 37 39 40 39 38 38 40 40 39 37 37 37 36 34 33 34 35 35 35 36 37 38
30 29 29 30 31 32 32 33 32 33 33 32 29 26 26 27 27 27 28 29 29 31 30 29 28 27 24 23 22 18 14 13 14 15 14 14 14 14 14 15 15 14 14 15 17 17 17 18 18 19 20 21 22 23 25 27 29 31 32 33 34 34 36 37 39 40 40 38 37 38 38 37 37 37 38 39 38 36 35 36 37 37 37 38 40
Wind_Direction
217 219 218 217 225 237 225 227 234 228 233 229 230 240 239 242 230 205 210 218 221 206 202 213 217 219 222 227 229 232 235 234 235 237 239 243 246 247 249 249 250 251 253 254 253 253 253 253 253 255 257 257 259 261 263 264 264 264 262 262 264 266 271 276 282 288 292 296 300 303 307 311 315 321 329 335 342 348 354 357 360 2 6 10 13
222 219 218 214 219 230 220 220 231 228 227 220 226 235 228 236 229 206 207 211 225 219 202 203 218 220 221 227 227 233 236 228 228 234 237 242 248 251 252 252 252 252 253 254 253 252 252 251 251 252 254 256 258 260 261 262 263 263 263 262 263 263 265 268 274 279 283 287 292 295 299 302 303 306 311 317 323 329 336 342 346 351 356 360 4
223 226 227 224 225 232 234 234 237 237 233 221 227 235 227 232 218 201 207 206 219 224 201 188 216 221 218 223 224 233 237 229 228 239 242 248 253 254 254 255 256 256 256 256 255 253 251 250 250 250 251 253 255 258 260 260 260 260 262 262 263 264 264 265 268 272 276 280 283 287 290 293 295 296 297 300 304 309 315 321 328 334 340 346 351
235 237 237 238 239 239 246 250 249 246 238 230 229 231 234 235 219 206 206 205 212 221 205 189 199 210 216 224 226 236 241 234 232 241 238 242 248 252 257 258 260 263 260 258 256 255 253 251 251 252 251 251 252 254 257 258 259 258 258 259 260 262 264 265 266 268 271 274 276 279 282 286 289 292 293 293 293 295 298 303 309 315 322 328 335
245 244 236 240 244 241 246 254 260 253 237 235 229 224 233 228 215 205 195 202 213 213 211 203 192 189 204 219 225 237 245 239 221 227 217 223 239 248 252 254 256 259 257 255 254 253 251 249 250 251 252 252 252 252 254 255 256 256 257 257 258 259 262 264 265 266 268 270 272 274 277 281 285 289 292 293 293 293 293 294 297 301 305 311 318
246 246 235 235 241 245 252 258 263 256 240 233 222 216 222 214 205 198 193 205 216 213 209 211 204 194 197 205 215 229 236 225 214 211 197 202 224 240 242 244 247 248 249 249 249 248 247 246 246 248 250 251 252 252 253 253 254 255 256 258 260 260 261 263 264 265 266 267 268 271 273 276 280 284 289 292 294 295 294 293 294 295 297 299 304
253 259 258 248 246 250 254 252 251 248 239 228 215 208 210 206 199 197 203 209 208 208 212 212 208 210 210 200 205 224 224 217 219 217 204 198 210 229 236 237 239 241 243 243 243 243 241 242 244 246 249 250 250 251 252 254 255 257 258 259 262 263 264 265 266 266 267 267 267 269 270 273 275 277 282 286 290 293 294 294 293 294 295 296 298
256 264 269 261 257 255 252 249 248 248 238 221 208 205 205 204 201 200 204 204 200 202 209 207 202 218 233 214 202 212 215 217 222 222 216 207 207 220 234 239 239 240 241 241 244 246 245 246 249 249 250 250 250 251 252 254 256 258 260 260 261 263 265 267 268 269 270 270 270 270 270 272 274 275 277 280 283 287 289 291 291 291 293 295 296
249 254 266 269 264 259 255 250 246 249 234 211 207 209 205 202 204 204 202 199 200 202 199 200 204 221 239 232 221 214 212 214 213 217 221 215 215 224 235 240 239 240 243 247 256 265 262 260 259 256 253 254 254 254 254 254 256 258 259 260 260 260 263 266 269 270 271 271 272 272 272 272 274 276 277 278 280 281 283 285 287 287 288 290 293
235 235 256 276 242 243 251 252 249 246 225 210 214 212 205 198 193 198 201 199 202 206 202 202 210 218 227 237 244 233 232 233 212 204 215 219 220 221 227 235 236 240 247 258 274 275 270 268 267 266 263 261 260 259 258 257 258 259 260 261 262 263 263 265 267 268 269 270 271 272 273 273 273 275 276 277 278 279 280 282 282 283 282 283 286
194 196 199 123 192 220 232 248 261 252 231 217 215 211 207 201 196 199 203 204 208 211 210 213 219 220 228 240 236 202 230 255 247 215 206 209 216 216 218 227 229 231 237 247 255 258 264 268 270 272 269 269 268 264 262 261 260 259 259 262 264 266 266 265 265 267 269 270 271 272 273 274 274 275 275 276 276 277 277 279 280 281 281 280 280
79 109 107 97 179 236 239 256 264 262 248 225 219 218 215 211 208 207 203 205 213 213 214 224 230 230 238 244 231 204 228 249 260 255 229 211 223 229 224 229 227 219 222 233 244 253 258 258 263 269 269 271 272 267 263 262 262 261 262 264 267 269 269 269 269 269 270 271 272 273 273 274 275 275 276 276 277 277 277 278 279 280 282 282 281
69 74 83 97 156 249 268 271 253 256 257 235 225 225 222 219 216 212 209 213 219 218 219 226 227 233 245 249 240 242 246 244 252 267 267 246 236 239 226 227 235 232 228 227 233 244 250 251 253 259 264 265 264 265 266 266 267 266 266 268 271 273 274 274 274 274 275 275 275 275 275 276 276 276 277 277 278 278 278 280 281 282 283 284 284
58 57 63 73 91 232 259 266 250 245 256 247 234 230 226 223 219 214 215 220 222 222 224 221 216 230 248 254 247 241 245 244 237 244 260 261 250 241 211 207 224 237 231 220 219 223 234 247 248 248 255 258 259 265 274 277 277 276 275 274 275 276 277 277 277 278 279 279 279 279 279 279 280 279 279 279 279 279 279 280 281 283 284 284 284
49 49 52 56 58 78 241 273 267 241 246 249 243 234 228 223 219 217 217 220 226 230 231 222 220 237 248 250 249 248 248 245 236 232 240 249 257 250 203 190 214 216 202 197 202 207 220 239 245 246 253 258 265 271 280 284 285 289 290 285 281 278 278 279 279 280 280 280 280 280 280 280 281 281 281 281 281 282 283 283 282 281 282 283 284
42 42 38 39 45 60 82 280 266 252 244 240 245 244 237 227 222 223 222 225 231 236 239 233 230 239 244 243 247 257 258 245 236 238 237 243 257 257 211 188 204 169 162 185 192 201 217 230 240 252 260 265 268 271 279 284 286 291 294 291 287 283 282 282 282 282 282 281 281 281 282 281 281 282 282 282 283 284 285 284 281 279 280 281 283
35 34 27 20 24 39 54 178 231 244 246 236 243 248 246 240 231 227 226 230 234 238 241 238 233 235 239 249 259 262 266 245 225 229 235 239 249 258 261 211 176 131 147 180 183 188 213 231 247 260 268 270 270 269 271 276 282 286 287 288 289 288 288 287 287 287 285 283 282 282 282 282 283 284 284 283 282 281 281 280 279 279 279 280 281
27 26 24 16 11 12 7 356 234 225 228 233 242 245 244 241 234 229 229 231 234 238 241 240 237 233 229 236 254 262 261 242 225 228 230 229 237 253 272 261 121 105 124 145 154 167 209 245 261 272 279 278 278 279 278 278 281 285 286 288 289 291 294 294 295 295 293 290 289 288 288 287 288 287 286 283 280 277 276 276 278 279 278 277 276
15 15 18 16 8 1 357 349 327 231 212 218 228 237 242 243 241 236 232 231 231 232 237 241 237 231 228 225 233 252 255 246 244 243 223 209 219 229 229 215 152 125 138 144 158 189 219 252 272 284 288 288 288 288 289 288 290 292 294 296 297 298 300 301 302 301 300 300 300 300 299 297 296 294 290 284 280 278 274 272 273 274 274 272 270
347 347 353 1 2 357 351 346 347 82 175 190 204 219 232 240 246 244 239 238 238 233 231 237 233 223 223 221 217 230 242 243 244 240 223 209 213 214 204 199 210 214 216 248 267 243 245 252 277 293 291 290 291 291 291 292 294 298 301 303 304 304 303 302 301 301 301 303 305 305 305 304 305 303 300 294 288 284 280 275 271 270 271 271 268
333 325 322 326 341 348 343 337 343 29 166 176 189 202 215 228 237 242 243 241 241 238 230 234 236 224 221 218 219 224 232 238 233 225 223 212 207 205 199 203 214 218 227 269 295 298 292 286 289 296 295 292 294 298 301 304 305 307 308 309 309 308 308 307 307 307 308 309 311 313 314 315 317 318 316 310 303 298 295 290 280 273 271 270 269
328 319 310 301 303 325 330 322 326 325 183 185 197 203 209 222 227 233 241 240 238 235 229 230 230 233 234 224 226 222 216 222 217 212 217 209 195 194 196 200 207 211 213 227 261 288 299 303 304 314 323 315 317 323 324 326 326 323 321 319 318 318 319 319 320 321 321 322 323 323 323 324 326 327 326 324 322 318 311 306 298 285 276 271 268
320 312 305 292 277 286 309 311 312 307 214 194 203 212 221 227 221 220 230 234 233 234 235 232 223 226 224 203 208 207 195 201 203 202 207 204 191 185 183 182 194 213 223 238 255 269 290 311 328 5 12 337 330 333 331 329 328 327 326 327 328 329 330 330 332 333 334 336 338 340 340 339 340 338 337 338 341 342 335 327 315 297 288 283 274
318 310 300 283 257 257 286 304 302 296 235 211 208 207 215 219 212 211 221 230 231 232 235 229 219 224 224 209 205 201 188 190 197 194 192 192 189 185 182 169 165 187 200 274 311 338 22 20 8 17 34 22 5 3 0 355 352 350 349 351 351 349 349 348 348 348 347 348 349 350 351 352 352 350 350 351 352 356 356 351 340 322 319 314 295
323 312 295 254 216 225 258 278 270 252 219 219 213 204 204 198 193 195 205 217 219 222 224 217 213 222 229 225 218 206 184 177 181 178 176 181 178 177 179 159 126 120 139 129 71 33 35 37 39 49 62 64 57 50 42 33 26 21 15 12 8 4 1 356 354 352 350 349 349 350 351 351 352 350 349 349 350 353 355 359 359 356 355 353 338
332 321 289 211 181 187 220 219 217 206 191 197 202 204 201 189 186 187 193 200 197 202 207 202 203 213 218 215 209 198 180 168 159 150 155 162 155 151 158 152 101 46 72 137 100 76 68 65 67 63 63 66 63 55 47 37 28 25 20 14 10 4 1 358 357 355 353 352 351 351 352 351 351 350 348 346 345 345 346 350 356 3 6 2 357
340 338 282 186 161 164 188 192 197 189 178 184 190 191 184 184 190 189 189 192 185 184 187 185 188 197 200 198 195 191 178 172 165 154 153 154 153 154 139 128 102 72 96 178 78 80 89 80 77 70 62 62 60 53 49 43 33 26 21 18 11 1 359 357 355 354 352 351 349 349 349 348 348 347 345 344 342 341 341 342 344 348 354 355 353
332 338 137 152 142 154 173 180 186 177 174 184 187 186 185 187 193 192 189 189 186 183 179 180 183 184 184 182 180 180 176 176 173 163 161 159 159 152 126 128 140 148 181 218 269 83 98 86 83 76 64 56 55 57 56 56 54 44 33 26 19 13 10 4 358 356 351 348 346 345 344 343 342 341 340 339 338 337 337 337 337 335 335 335 334
300 290 164 130 129 152 169 175 178 170 171 183 190 188 188 189 192 191 188 185 184 184 180 180 181 177 174 171 167 168 165 158 153 146 148 156 161 153 137 147 168 180 203 218 199 118 95 90 89 74 66 63 61 66 63 58 53 44 33 22 17 16 13 8 3 360 355 351 347 343 340 338 337 336 334 333 332 332 331 330 330 329 327 324 322
272 255 199 138 137 152 170 171 169 166 165 175 184 184 184 186 187 187 186 182 179 178 176 174 175 170 166 162 157 158 154 145 144 142 139 149 162 159 150 161 175 193 211 178 148 141 109 99 101 87 100 99 69 50 37 33 29 22 15 11 10 5 0 360 360 358 356 352 347 343 341 337 334 332 329 328 326 325 324 323 322 321 320 318 316
255 241 209 163 154 158 170 167 157 157 157 160 164 169 175 174 172 172 173 175 173 170 167 164 161 156 152 148 144 142 140 137 139 140 141 147 151 144 144 161 178 196 188 127 135 156 168 206 248 238 209 191 34 9 1 358 357 356 353 353 353 350 350 351 350 347 344 342 339 339 338 336 334 331 328 325 322 319 318 316 315 314 313 312 310
245 235 213 179 168 163 164 157 148 143 140 142 146 150 154 151 153 159 162 164 163 159 158 153 147 142 137 134 132 128 128 130 131 134 138 139 142 144 152 164 183 220 247 104 194 220 226 249 265 262 260 277 300 316 324 322 328 336 338 337 337 339 342 341 338 335 333 333 332 331 331 331 329 327 326 324 321 319 316 313 310 309 307 306 304
242 233 215 186 171 162 159 153 145 136 131 132 135 137 138 139 145 152 153 153 152 151 151 145 140 137 133 129 125 123 125 129 130 134 139 146 157 164 177 187 202 243 265 266 264 268 269 268 271 270 271 284 297 308 316 318 322 326 327 326 325 326 329 329 329 331 331 330 329 326 326 325 323 320 318 316 314 313 312 309 307 306 304 303 301
238 227 205 184 169 158 156 153 145 138 134 130 131 135 137 139 143 146 148 150 152 151 149 146 143 137 133 129 126 126 130 131 132 139 155 200 213 196 214 238 244 263 279 285 281 276 278 280 278 276 284 294 299 304 312 317 322 325 327 329 327 325 326 326 327 329 330 329 327 325 323 322 321 318 314 311 307 305 303 300 299 297 297 297 297
232 215 192 181 170 160 159 158 152 146 141 137 141 145 144 145 146 149 153 155 156 156 153 153 151 142 138 139 138 150 165 166 192 205 230 257 267 268 263 263 264 272 281 286 289 289 290 288 283 281 286 291 296 303 310 313 318 321 325 330 330 327 326 326 326 325 326 326 325 323 321 320 319 318 317 314 311 307 303 298 294 290 288 286 286
227 210 192 183 174 169 168 167 165 161 159 161 163 162 161 161 162 164 176 185 187 200 214 223 230 236 239 250 258 264 271 272 266 261 261 270 279 279 274 271 268 270 275 280 286 291 292 292 292 293 293 290 292 300 305 309 316 321 327 333 334 332 330 330 328 325 324 323 323 321 318 316 316 315 314 313 311 309 306 302 297 292 288 283 280
232 222 206 194 185 182 183 183 183 182 185 190 191 193 196 197 204 213 234 255 269 275 283 287 283 281 279 278 278 278 280 277 273 270 266 272 279 279 277 277 276 275 278 280 281 282 282 285 288 293 297 299 300 301 300 306 317 324 330 334 334 331 329 328 326 324 322 320 319 318 315 312 311 310 309 307 305 304 303 302 300 297 293 289 284
242 237 228 215 203 197 197 200 200 200 203 207 209 214 217 219 227 234 246 261 269 276 283 286 286 286 284 283 283 284 284 281 279 280 277 276 281 284 284 287 288 284 281 280 279 277 275 276 280 286 292 295 300 305 306 312 319 322 325 329 328 326 324 323 322 320 318 317 316 315 314 311 308 306 305 304 302 301 300 299 298 297 295 292 289
246 245 241 233 225 219 215 215 216 216 219 220 221 226 230 233 238 242 249 258 268 275 280 283 285 285 285 286 286 287 288 288 287 287 285 280 283 289 291 293 294 291 287 281 278 276 271 270 275 283 290 293 297 303 308 314 318 318 321 325 324 321 319 318 317 316 314 314 314 315 315 313 310 308 307 305 303 301 300 297 296 295 293 290 289
248 249 248 242 237 237 235 234 234 233 232 232 233 236 239 243 248 251 256 262 267 271 275 278 280 281 281 280 279 278 278 280 282 282 278 274 277 284 289 289 288 288 286 280 274 271 266 266 274 281 290 295 297 302 307 312 315 316 319 320 318 314 313 314 314 314 313 312 312 313 314 312 310 309 308 306 304 302 300 297 295 294 291 289 287
252 248 249 248 244 244 245 246 246 245 243 242 242 245 249 253 256 259 262 265 266 268 271 273 274 276 275 273 273 275 275 276 277 275 272 269 272 278 281 281 279 277 273 268 265 265 267 269 276 282 286 291 297 304 309 311 313 314 315 315 312 311 311 312 313 313 312 311 310 310 311 310 308 307 307 306 305 303 301 298 296 294 291 288 286
268 254 250 251 250 250 252 254 254 253 252 250 249 252 255 257 259 262 264 265 266 269 270 270 271 273 271 271 274 277 278 278 278 276 274 271 272 275 273 268 267 264 260 258 259 263 270 274 278 283 287 292 299 304 306 309 310 310 311 311 311 311 313 313 314 314 312 310 309 309 311 309 307 306 306 306 305 303 301 300 299 296 292 289 286
269 265 264 265 262 258 256 256 257 258 256 254 255 258 260 261 264 265 266 267 268 269 272 273 271 266 265 268 275 277 275 274 275 276 275 274 275 278 272 258 250 253 256 258 263 267 273 278 283 288 291 295 299 301 304 307 306 306 309 312 313 315 316 316 317 318 316 312 311 311 312 310 307 306 307 308 306 305 303 302 301 299 296 293 289
269 274 277 273 267 263 260 259 260 259 257 258 262 263 262 265 269 271 271 272 272 272 274 274 271 269 271 277 280 279 275 274 275 275 275 276 278 277 266 249 240 247 255 259 266 271 276 280 285 291 294 296 298 301 304 305 304 305 310 314 315 316 317 317 318 320 319 315 312 312 312 312 308 307 308 308 305 303 301 300 299 298 297 294 292
268 268 268 266 264 266 265 263 262 262 262 263 265 265 266 270 273 274 276 277 277 276 276 276 278 281 284 282 280 281 282 280 278 275 273 274 272 265 254 245 241 243 251 260 266 271 276 280 284 290 294 294 295 299 303 304 305 308 312 313 314 315 315 316 317 318 318 315 313 312 311 310 308 307 307 305 302 301 300 298 297 297 296 295 294
270 268 266 265 264 265 265 263 264 265 266 266 264 264 267 270 271 272 275 278 279 278 276 278 281 284 283 280 280 284 285 281 276 271 267 263 255 243 238 239 238 238 247 260 268 273 278 282 286 292 295 293 294 299 304 306 308 311 312 312 313 313 313 313 315 316 316 314 313 311 309 309 309 309 307 306 304 302 301 300 299 298 296 296 295
286 282 278 277 273 269 266 263 263 265 267 270 271 268 268 269 270 271 273 276 278 278 278 278 279 279 279 281 283 284 281 275 267 258 249 241 233 227 228 231 236 243 254 262 269 275 280 285 290 294 296 296 298 303 306 308 310 311 312 312 312 312 312 313 314 315 315 316 315 312 310 311 312 311 309 308 306 304 303 302 301 298 297 296 295
284 282 280 280 277 274 272 271 270 271 273 274 273 271 268 267 268 269 270 272 273 275 277 278 279 278 278 279 281 279 273 265 254 241 233 235 236 232 233 238 244 251 260 267 273 278 283 287 291 294 297 300 303 305 307 309 311 311 311 311 310 311 311 312 313 315 316 318 317 313 312 311 312 310 309 308 306 304 303 302 300 297 296 294 293
282 281 280 279 277 277 278 278 278 279 279 277 272 271 269 265 265 266 266 267 269 270 272 274 277 277 276 276 274 265 253 245 239 232 231 235 237 237 242 249 254 260 268 274 278 281 284 287 291 295 299 302 304 307 308 310 310 310 309 308 309 310 310 312 314 315 316 316 314 312 310 309 309 309 308 307 306 305 304 302 300 298 297 296 294
281 281 281 281 281 281 280 280 280 280 279 277 273 272 269 265 264 264 264 264 265 265 266 268 271 274 274 271 263 251 238 230 228 228 230 234 239 244 250 257 264 270 274 278 280 282 286 289 293 297 300 302 305 306 307 307 308 308 308 309 311 312 311 311 312 312 312 311 310 310 308 307 308 308 307 306 305 304 304 303 301 301 301 300 297
277 278 279 279 279 280 280 280 279 278 277 276 274 274 273 272 268 263 261 261 260 260 260 261 264 268 267 262 254 245 235 230 228 230 233 236 242 247 252 261 269 272 274 278 281 285 289 292 294 297 299 302 304 305 306 307 308 308 309 310 310 308 307 307 307 307 307 307 307 307 305 304 305 306 306 306 304 304 304 303 303 303 302 299 297